QPF
0.10 0.06 0.04 0.02 0.03 0.05 0.06 0.08 0.11 0.11 0.09 0.08 0.09 0.08 0.07 0.08 0.12 0.16 0.15 0.17 0.15 0.10 0.09 0.09 0.07 0.07 0.13 0.15 0.08 0.03 0.03 0.02 0.02 0.03 0.03 0.02 0.02 0.02 0.02 0.03 0.02 0.03 0.03
0.11 0.09 0.08 0.03 0.03 0.06 0.07 0.08 0.10 0.13 0.10 0.09 0.08 0.07 0.08 0.07 0.09 0.14 0.17 0.15 0.12 0.10 0.08 0.07 0.05 0.04 0.07 0.12 0.13 0.06 0.03 0.02 0.02 0.02 0.02 0.02 0.02 0.01 0.01 0.02 0.03 0.02 0.03
0.06 0.06 0.07 0.05 0.05 0.07 0.09 0.08 0.08 0.09 0.09 0.07 0.07 0.06 0.07 0.07 0.08 0.10 0.15 0.15 0.12 0.09 0.08 0.06 0.05 0.04 0.03 0.06 0.09 0.08 0.04 0.03 0.02 0.02 0.02 0.02 0.02 0.01 0.01 0.01 0.02 0.02 0.02
0.03 0.04 0.03 0.03 0.04 0.06 0.09 0.09 0.07 0.08 0.07 0.06 0.06 0.06 0.06 0.08 0.07 0.08 0.11 0.13 0.12 0.09 0.07 0.06 0.05 0.04 0.03 0.03 0.04 0.05 0.05 0.04 0.03 0.03 0.02 0.01 0.01 0.01 0.01 0.01 0.01 0.02 0.01
0.02 0.03 0.02 0.01 0.02 0.04 0.08 0.10 0.08 0.08 0.06 0.06 0.05 0.04 0.06 0.07 0.08 0.07 0.07 0.10 0.10 0.08 0.06 0.06 0.06 0.04 0.03 0.02 0.02 0.02 0.03 0.03 0.03 0.03 0.03 0.02 0.01 0.00 0.01 0.00 0.01 0.01 0.01
0.01 0.01 0.02 0.01 0.01 0.03 0.05 0.09 0.10 0.09 0.09 0.08 0.06 0.04 0.06 0.07 0.09 0.07 0.07 0.07 0.08 0.07 0.05 0.05 0.05 0.05 0.03 0.02 0.01 0.01 0.02 0.02 0.03 0.03 0.03 0.02 0.01 0.01 0.00 0.00 0.00 0.01 0.01
0.01 0.01 0.01 0.01 0.01 0.02 0.04 0.06 0.09 0.10 0.10 0.10 0.07 0.04 0.06 0.09 0.08 0.08 0.06 0.05 0.05 0.05 0.05 0.04 0.03 0.04 0.04 0.02 0.01 0.01 0.01 0.02 0.02 0.02 0.02 0.03 0.02 0.02 0.01 0.00 0.00 0.00 0.00
0.01 0.01 0.01 0.01 0.01 0.01 0.03 0.04 0.06 0.09 0.10 0.10 0.09 0.06 0.06 0.07 0.09 0.08 0.06 0.05 0.03 0.03 0.04 0.04 0.03 0.03 0.04 0.03 0.02 0.02 0.01 0.01 0.02 0.02 0.02 0.02 0.02 0.02 0.01 0.01 0.00 0.00 0.00
0.00 0.00 0.01 0.01 0.00 0.01 0.02 0.04 0.04 0.06 0.07 0.07 0.08 0.08 0.07 0.06 0.07 0.08 0.07 0.05 0.04 0.03 0.03 0.03 0.03 0.02 0.03 0.03 0.03 0.02 0.02 0.02 0.02 0.02 0.02 0.02 0.02 0.01 0.01 0.00 0.00 0.00 0.00
0.00 0.00 0.00 0.00 0.00 0.00 0.01 0.02 0.04 0.05 0.06 0.06 0.07 0.07 0.07 0.06 0.05 0.06 0.07 0.06 0.04 0.03 0.03 0.02 0.02 0.02 0.02 0.02 0.03 0.02 0.02 0.02 0.01 0.01 0.02 0.02 0.02 0.01 0.01 0.01 0.00 0.00 0.01
0.00 0.00 0.00 0.00 0.01 0.01 0.01 0.02 0.03 0.04 0.04 0.05 0.06 0.05 0.04 0.04 0.04 0.05 0.06 0.06 0.04 0.03 0.03 0.02 0.03 0.02 0.02 0.02 0.01 0.02 0.02 0.02 0.01 0.01 0.01 0.01 0.01 0.02 0.01 0.01 0.01 0.01 0.01
0.00 0.00 0.00 0.00 0.00 0.01 0.01 0.02 0.02 0.03 0.04 0.04 0.05 0.05 0.03 0.02 0.02 0.03 0.05 0.05 0.05 0.03 0.03 0.03 0.02 0.02 0.02 0.02 0.02 0.01 0.01 0.01 0.01 0.01 0.01 0.02 0.02 0.02 0.01 0.01 0.01 0.01 0.00
0.00 0.00 0.00 0.00 0.00 0.00 0.00 0.01 0.01 0.01 0.02 0.04 0.04 0.03 0.03 0.03 0.01 0.01 0.02 0.03 0.04 0.03 0.03 0.03 0.02 0.02 0.02 0.02 0.02 0.02 0.02 0.01 0.01 0.01 0.01 0.02 0.02 0.02 0.01 0.01 0.01 0.01 0.00
0.00 0.00 0.00 0.01 0.01 0.00 0.00 0.00 0.01 0.01 0.01 0.03 0.04 0.03 0.02 0.02 0.01 0.01 0.02 0.02 0.03 0.03 0.02 0.02 0.02 0.02 0.02 0.02 0.02 0.02 0.02 0.01 0.01 0.01 0.01 0.02 0.02 0.02 0.02 0.01 0.01 0.01 0.01
0.00 0.00 0.00 0.00 0.00 0.00 0.00 0.00 0.01 0.01 0.01 0.02 0.03 0.05 0.03 0.02 0.01 0.01 0.01 0.02 0.03 0.02 0.02 0.02 0.02 0.02 0.02 0.02 0.02 0.02 0.02 0.01 0.01 0.01 0.01 0.02 0.02 0.02 0.02 0.02 0.01 0.01 0.01
0.00 0.00 0.00 0.00 0.00 0.00 0.00 0.00 0.00 0.01 0.02 0.02 0.02 0.04 0.04 0.02 0.02 0.01 0.01 0.01 0.02 0.02 0.02 0.02 0.01 0.01 0.01 0.02 0.02 0.02 0.02 0.01 0.01 0.01 0.01 0.02 0.02 0.02 0.02 0.02 0.02 0.02 0.01
0.00 0.00 0.00 0.00 0.00 0.00 0.00 0.00 0.00 0.01 0.01 0.02 0.02 0.03 0.04 0.03 0.02 0.02 0.02 0.02 0.01 0.01 0.01 0.02 0.01 0.02 0.02 0.01 0.01 0.01 0.01 0.01 0.01 0.01 0.01 0.02 0.02 0.02 0.02 0.02 0.02 0.02 0.01
0.00 0.00 0.00 0.00 0.00 0.00 0.00 0.00 0.00 0.00 0.01 0.01 0.02 0.03 0.03 0.03 0.03 0.03 0.02 0.02 0.01 0.01 0.01 0.01 0.01 0.02 0.02 0.02 0.01 0.01 0.01 0.01 0.01 0.01 0.01 0.01 0.01 0.01 0.01 0.02 0.02 0.02 0.02
0.00 0.00 0.00 0.00 0.00 0.00 0.00 0.00 0.00 0.01 0.00 0.01 0.01 0.02 0.03 0.02 0.02 0.02 0.02 0.02 0.02 0.01 0.01 0.01 0.01 0.01 0.01 0.01 0.01 0.01 0.01 0.01 0.01 0.01 0.01 0.01 0.01 0.02 0.02 0.02 0.01 0.01 0.01
0.00 0.00 0.00 0.00 0.00 0.00 0.00 0.00 0.00 0.01 0.01 0.01 0.01 0.02 0.02 0.02 0.01 0.01 0.01 0.01 0.02 0.02 0.01 0.01 0.01 0.01 0.01 0.01 0.01 0.01 0.00 0.00 0.00 0.00 0.00 0.00 0.01 0.01 0.02 0.02 0.02 0.01 0.01
0.01 0.01 0.01 0.01 0.01 0.01 0.00 0.00 0.01 0.01 0.01 0.01 0.01 0.01 0.02 0.02 0.01 0.01 0.01 0.01 0.01 0.01 0.02 0.02 0.01 0.01 0.00 0.00 0.00 0.00 0.00 0.00 0.00 0.00 0.00 0.00 0.00 0.01 0.01 0.01 0.01 0.01 0.01
0.01 0.01 0.02 0.02 0.01 0.01 0.01 0.01 0.01 0.01 0.02 0.02 0.02 0.01 0.01 0.01 0.01 0.01 0.01 0.01 0.01 0.01 0.01 0.01 0.01 0.01 0.00 0.00 0.00 0.00 0.00 0.00 0.00 0.00 0.00 0.00 0.00 0.01 0.02 0.01 0.01 0.02 0.01
0.03 0.03 0.03 0.04 0.04 0.03 0.03 0.02 0.02 0.02 0.02 0.03 0.03 0.03 0.02 0.02 0.02 0.02 0.02 0.01 0.01 0.01 0.01 0.01 0.01 0.00 0.00 0.00 0.00 0.00 0.00 0.00 0.00 0.00 0.00 0.00 0.00 0.01 0.01 0.01 0.01 0.01 0.01
0.05 0.05 0.04 0.04 0.05 0.06 0.06 0.05 0.04 0.03 0.03 0.03 0.03 0.04 0.03 0.03 0.02 0.02 0.03 0.02 0.02 0.02 0.01 0.01 0.01 0.00 0.00 0.00 0.00 0.00 0.00 0.00 0.00 0.00 0.00 0.00 0.01 0.01 0.01 0.01 0.01 0.01 0.01
0.05 0.05 0.05 0.05 0.05 0.05 0.05 0.05 0.04 0.03 0.03 0.03 0.03 0.02 0.02 0.02 0.02 0.02 0.02 0.02 0.02 0.02 0.02 0.02 0.01 0.01 0.00 0.00 0.00 0.01 0.01 0.01 0.01 0.01 0.01 0.01 0.01 0.01 0.01 0.01 0.01 0.01 0.01
0.04 0.04 0.04 0.04 0.04 0.04 0.04 0.03 0.03 0.03 0.02 0.02 0.02 0.02 0.02 0.01 0.01 0.01 0.01 0.01 0.01 0.01 0.01 0.01 0.01 0.01 0.01 0.01 0.01 0.01 0.01 0.01 0.01 0.02 0.01 0.01 0.00 0.01 0.01 0.01 0.01 0.01 0.01
MSLP
1006.01 1006.51 1007.05 1007.56 1007.95 1008.21 1008.34 1008.36 1008.32 1008.28 1008.27 1008.30 1008.37 1008.45 1008.50 1008.50 1008.43 1008.31 1008.17 1008.06 1008.05 1008.20 1008.55 1009.13 1009.92 1010.88 1011.97 1013.11 1014.27 1015.37 1016.41 1017.38 1018.26 1019.07 1019.81 1020.49 1021.08 1021.59 1021.98 1022.25 1022.41 1022.46 1022.42
1005.56 1006.13 1006.75 1007.33 1007.79 1008.09 1008.22 1008.21 1008.11 1007.97 1007.84 1007.73 1007.66 1007.61 1007.56 1007.49 1007.40 1007.30 1007.22 1007.21 1007.33 1007.61 1008.09 1008.79 1009.67 1010.69 1011.81 1012.96 1014.10 1015.20 1016.22 1017.18 1018.07 1018.91 1019.69 1020.42 1021.08 1021.65 1022.12 1022.46 1022.68 1022.79 1022.80
1005.22 1005.83 1006.51 1007.14 1007.65 1007.99 1008.14 1008.13 1007.98 1007.77 1007.53 1007.30 1007.10 1006.92 1006.76 1006.62 1006.50 1006.41 1006.40 1006.49 1006.73 1007.15 1007.76 1008.56 1009.51 1010.56 1011.68 1012.81 1013.91 1014.95 1015.93 1016.85 1017.73 1018.57 1019.38 1020.15 1020.87 1021.50 1022.04 1022.47 1022.77 1022.96 1023.04
1005.01 1005.61 1006.30 1006.97 1007.52 1007.89 1008.08 1008.08 1007.93 1007.68 1007.38 1007.06 1006.75 1006.47 1006.22 1006.02 1005.87 1005.81 1005.85 1006.03 1006.38 1006.91 1007.62 1008.49 1009.47 1010.53 1011.61 1012.68 1013.71 1014.67 1015.58 1016.44 1017.28 1018.10 1018.91 1019.69 1020.45 1021.14 1021.74 1022.25 1022.63 1022.91 1023.09
1004.93 1005.49 1006.14 1006.79 1007.36 1007.77 1008.00 1008.04 1007.92 1007.68 1007.37 1007.01 1006.65 1006.31 1006.00 1005.76 1005.60 1005.56 1005.65 1005.90 1006.33 1006.93 1007.70 1008.60 1009.58 1010.61 1011.63 1012.61 1013.54 1014.41 1015.23 1016.01 1016.79 1017.56 1018.34 1019.12 1019.88 1020.60 1021.25 1021.81 1022.28 1022.64 1022.92
1005.03 1005.47 1006.03 1006.63 1007.17 1007.59 1007.86 1007.97 1007.92 1007.74 1007.46 1007.13 1006.77 1006.42 1006.10 1005.85 1005.70 1005.67 1005.80 1006.10 1006.57 1007.21 1007.99 1008.88 1009.83 1010.80 1011.74 1012.62 1013.45 1014.22 1014.94 1015.64 1016.34 1017.05 1017.78 1018.53 1019.26 1019.97 1020.63 1021.22 1021.74 1022.17 1022.53
1005.31 1005.58 1006.01 1006.49 1006.97 1007.38 1007.68 1007.85 1007.88 1007.79 1007.61 1007.35 1007.05 1006.73 1006.45 1006.22 1006.09 1006.09 1006.24 1006.56 1007.04 1007.68 1008.44 1009.29 1010.18 1011.07 1011.92 1012.72 1013.45 1014.13 1014.77 1015.39 1016.02 1016.66 1017.33 1018.01 1018.69 1019.35 1019.98 1020.57 1021.10 1021.58 1022.01
1005.80 1005.88 1006.11 1006.43 1006.80 1007.16 1007.46 1007.68 1007.80 1007.82 1007.75 1007.59 1007.39 1007.16 1006.94 1006.76 1006.67 1006.69 1006.86 1007.18 1007.65 1008.26 1008.98 1009.77 1010.58 1011.39 1012.16 1012.88 1013.54 1014.16 1014.74 1015.31 1015.88 1016.46 1017.05 1017.65 1018.26 1018.85 1019.42 1019.96 1020.48 1020.97 1021.43
1006.54 1006.38 1006.39 1006.52 1006.74 1007.01 1007.27 1007.51 1007.70 1007.81 1007.85 1007.82 1007.73 1007.61 1007.47 1007.36 1007.32 1007.37 1007.55 1007.85 1008.30 1008.86 1009.52 1010.24 1010.99 1011.73 1012.43 1013.10 1013.72 1014.30 1014.86 1015.40 1015.93 1016.46 1016.99 1017.52 1018.03 1018.53 1019.02 1019.50 1019.96 1020.43 1020.89
1007.54 1007.14 1006.91 1006.82 1006.86 1006.99 1007.19 1007.41 1007.62 1007.80 1007.94 1008.01 1008.03 1008.01 1007.96 1007.93 1007.94 1008.02 1008.21 1008.50 1008.91 1009.43 1010.02 1010.68 1011.36 1012.04 1012.71 1013.35 1013.96 1014.54 1015.09 1015.63 1016.15 1016.66 1017.14 1017.60 1018.03 1018.44 1018.84 1019.23 1019.62 1020.04 1020.47
1008.78 1008.17 1007.71 1007.40 1007.24 1007.22 1007.29 1007.45 1007.64 1007.84 1008.03 1008.17 1008.28 1008.34 1008.38 1008.41 1008.47 1008.59 1008.79 1009.07 1009.45 1009.93 1010.47 1011.07 1011.70 1012.34 1012.98 1013.61 1014.23 1014.82 1015.40 1015.96 1016.49 1016.98 1017.44 1017.85 1018.22 1018.55 1018.86 1019.17 1019.49 1019.85 1020.24
1010.21 1009.43 1008.77 1008.26 1007.91 1007.71 1007.64 1007.69 1007.82 1007.99 1008.17 1008.35 1008.50 1008.62 1008.71 1008.81 1008.92 1009.07 1009.28 1009.57 1009.93 1010.37 1010.88 1011.43 1012.02 1012.63 1013.25 1013.88 1014.50 1015.12 1015.72 1016.30 1016.85 1017.35 1017.79 1018.18 1018.51 1018.79 1019.04 1019.29 1019.55 1019.84 1020.18
1011.75 1010.85 1010.04 1009.36 1008.84 1008.47 1008.25 1008.16 1008.18 1008.27 1008.41 1008.57 1008.72 1008.87 1009.00 1009.14 1009.29 1009.48 1009.72 1010.02 1010.38 1010.80 1011.28 1011.80 1012.35 1012.93 1013.53 1014.14 1014.76 1015.39 1016.00 1016.60 1017.16 1017.68 1018.13 1018.51 1018.82 1019.08 1019.30 1019.51 1019.73 1019.98 1020.27
1013.29 1012.32 1011.42 1010.62 1009.95 1009.43 1009.05 1008.82 1008.71 1008.69 1008.75 1008.85 1008.97 1009.11 1009.26 1009.43 1009.62 1009.85 1010.12 1010.45 1010.82 1011.24 1011.70 1012.20 1012.72 1013.26 1013.83 1014.41 1015.01 1015.62 1016.23 1016.83 1017.40 1017.92 1018.38 1018.77 1019.09 1019.36 1019.58 1019.77 1019.97 1020.20 1020.45
1014.69 1013.71 1012.77 1011.90 1011.13 1010.48 1009.96 1009.58 1009.33 1009.19 1009.14 1009.16 1009.23 1009.35 1009.50 1009.69 1009.92 1010.19 1010.51 1010.87 1011.27 1011.70 1012.16 1012.64 1013.13 1013.64 1014.16 1014.70 1015.26 1015.83 1016.41 1016.99 1017.55 1018.07 1018.54 1018.95 1019.29 1019.58 1019.82 1020.03 1020.24 1020.45 1020.68
1015.86 1014.91 1013.96 1013.05 1012.22 1011.47 1010.84 1010.33 1009.95 1009.68 1009.52 1009.46 1009.47 1009.56 1009.71 1009.92 1010.19 1010.51 1010.87 1011.28 1011.72 1012.17 1012.64 1013.11 1013.58 1014.05 1014.53 1015.02 1015.52 1016.04 1016.57 1017.11 1017.64 1018.15 1018.63 1019.05 1019.42 1019.75 1020.02 1020.26 1020.48 1020.70 1020.92
1016.69 1015.79 1014.87 1013.96 1013.08 1012.27 1011.55 1010.94 1010.45 1010.07 1009.81 1009.67 1009.63 1009.69 1009.84 1010.08 1010.39 1010.77 1011.19 1011.66 1012.14 1012.63 1013.12 1013.60 1014.06 1014.50 1014.94 1015.37 1015.82 1016.28 1016.76 1017.25 1017.75 1018.24 1018.70 1019.14 1019.54 1019.89 1020.20 1020.47 1020.71 1020.94 1021.15
1017.14 1016.28 1015.40 1014.50 1013.61 1012.77 1011.99 1011.30 1010.72 1010.26 1009.93 1009.73 1009.66 1009.71 1009.88 1010.15 1010.51 1010.95 1011.44 1011.97 1012.51 1013.05 1013.57 1014.07 1014.53 1014.96 1015.37 1015.77 1016.18 1016.59 1017.02 1017.47 1017.93 1018.39 1018.84 1019.28 1019.69 1020.06 1020.39 1020.69 1020.95 1021.18 1021.38
1017.21 1016.39 1015.53 1014.65 1013.77 1012.91 1012.09 1011.36 1010.73 1010.23 1009.86 1009.63 1009.55 1009.61 1009.81 1010.12 1010.54 1011.05 1011.61 1012.20 1012.81 1013.40 1013.96 1014.49 1014.97 1015.41 1015.82 1016.21 1016.59 1016.98 1017.37 1017.79 1018.21 1018.65 1019.09 1019.51 1019.92 1020.29 1020.63 1020.93 1021.20 1021.42 1021.61
1016.95 1016.15 1015.32 1014.45 1013.58 1012.71 1011.89 1011.14 1010.50 1009.98 1009.60 1009.38 1009.32 1009.41 1009.66 1010.03 1010.52 1011.09 1011.72 1012.37 1013.04 1013.69 1014.30 1014.86 1015.38 1015.84 1016.27 1016.67 1017.05 1017.43 1017.82 1018.21 1018.62 1019.03 1019.44 1019.85 1020.23 1020.59 1020.92 1021.21 1021.46 1021.68 1021.85
1016.44 1015.65 1014.82 1013.97 1013.11 1012.26 1011.45 1010.71 1010.08 1009.58 1009.23 1009.04 1009.03 1009.18 1009.48 1009.92 1010.48 1011.12 1011.81 1012.52 1013.24 1013.93 1014.59 1015.19 1015.74 1016.25 1016.71 1017.13 1017.53 1017.93 1018.31 1018.70 1019.09 1019.49 1019.87 1020.25 1020.61 1020.94 1021.24 1021.51 1021.74 1021.92 1022.07
1015.79 1014.99 1014.17 1013.33 1012.49 1011.66 1010.88 1010.17 1009.58 1009.12 1008.83 1008.70 1008.76 1008.98 1009.36 1009.87 1010.49 1011.19 1011.93 1012.70 1013.45 1014.18 1014.86 1015.50 1016.09 1016.62 1017.11 1017.57 1018.00 1018.41 1018.81 1019.21 1019.59 1019.96 1020.32 1020.67 1020.99 1021.29 1021.55 1021.78 1021.98 1022.14 1022.26
1015.09 1014.28 1013.46 1012.64 1011.82 1011.03 1010.29 1009.64 1009.10 1008.72 1008.50 1008.46 1008.59 1008.90 1009.36 1009.94 1010.63 1011.38 1012.16 1012.95 1013.72 1014.46 1015.16 1015.81 1016.41 1016.97 1017.48 1017.97 1018.42 1018.85 1019.26 1019.65 1020.03 1020.38 1020.72 1021.03 1021.31 1021.57 1021.80 1021.99 1022.16 1022.29 1022.39
1014.44 1013.62 1012.81 1012.01 1011.23 1010.48 1009.80 1009.22 1008.76 1008.46 1008.33 1008.37 1008.60 1009.00 1009.53 1010.18 1010.92 1011.70 1012.51 1013.31 1014.08 1014.81 1015.50 1016.14 1016.74 1017.30 1017.82 1018.31 1018.77 1019.21 1019.62 1020.01 1020.37 1020.71 1021.01 1021.29 1021.54 1021.76 1021.95 1022.12 1022.25 1022.37 1022.45
1013.93 1013.11 1012.32 1011.55 1010.81 1010.12 1009.51 1008.99 1008.62 1008.41 1008.37 1008.51 1008.82 1009.29 1009.90 1010.61 1011.38 1012.18 1012.99 1013.78 1014.54 1015.24 1015.90 1016.51 1017.08 1017.62 1018.12 1018.60 1019.05 1019.48 1019.88 1020.26 1020.60 1020.91 1021.19 1021.43 1021.65 1021.84 1022.00 1022.14 1022.26 1022.35 1022.42
1013.61 1012.81 1012.05 1011.32 1010.63 1010.01 1009.46 1009.03 1008.74 1008.61 1008.66 1008.88 1009.27 1009.80 1010.45 1011.20 1011.99 1012.80 1013.60 1014.36 1015.08 1015.74 1016.36 1016.92 1017.45 1017.94 1018.41 1018.86 1019.29 1019.69 1020.07 1020.42 1020.74 1021.02 1021.27 1021.48 1021.67 1021.83 1021.97 1022.09 1022.20 1022.27 1022.32
Thickness
5618 5619 5620 5620 5620 5618 5617 5617 5616 5615 5615 5615 5615 5615 5616 5619 5622 5625 5628 5629 5630 5631 5631 5630 5630 5630 5629 5628 5628 5627 5625 5623 5624 5622 5618 5617 5619 5619 5619 5619 5618 5618 5617
5611 5613 5614 5615 5615 5614 5614 5613 5613 5612 5612 5612 5612 5613 5613 5613 5616 5618 5620 5621 5622 5624 5624 5624 5623 5623 5622 5620 5620 5620 5618 5616 5616 5614 5611 5607 5607 5609 5610 5609 5609 5609 5609
5609 5609 5608 5609 5610 5610 5610 5609 5609 5609 5608 5607 5606 5606 5606 5606 5607 5610 5612 5614 5616 5617 5618 5617 5617 5616 5616 5614 5613 5613 5612 5609 5608 5608 5607 5603 5601 5598 5599 5600 5600 5600 5600
5607 5607 5606 5606 5606 5607 5606 5605 5605 5604 5603 5603 5603 5603 5604 5603 5604 5605 5608 5609 5610 5610 5611 5611 5611 5610 5609 5607 5607 5606 5606 5604 5601 5600 5600 5599 5598 5593 5591 5591 5591 5591 5591
5604 5603 5603 5603 5602 5601 5600 5599 5599 5598 5598 5599 5599 5600 5599 5599 5599 5600 5601 5600 5601 5602 5603 5603 5603 5603 5602 5600 5600 5599 5598 5597 5595 5593 5592 5590 5588 5587 5585 5582 5581 5580 5580
5599 5599 5599 5597 5596 5594 5593 5593 5593 5593 5593 5594 5594 5595 5594 5594 5594 5594 5593 5592 5593 5593 5594 5595 5596 5595 5594 5593 5592 5592 5591 5590 5588 5587 5585 5584 5582 5579 5577 5574 5572 5571 5571
5594 5593 5591 5591 5590 5589 5588 5587 5587 5587 5587 5588 5588 5589 5589 5589 5589 5589 5588 5587 5586 5586 5587 5587 5587 5587 5587 5586 5585 5583 5583 5582 5580 5579 5577 5577 5576 5574 5571 5567 5564 5561 5561
5588 5589 5588 5587 5585 5584 5583 5582 5582 5581 5581 5582 5582 5582 5582 5582 5582 5582 5581 5581 5580 5580 5580 5579 5579 5579 5578 5578 5576 5575 5574 5573 5571 5570 5569 5568 5567 5566 5563 5560 5555 5551 5550
5582 5582 5582 5581 5580 5579 5578 5577 5577 5576 5576 5577 5576 5575 5575 5575 5575 5574 5574 5574 5573 5572 5571 5570 5569 5569 5569 5568 5567 5565 5564 5563 5562 5561 5560 5558 5556 5555 5554 5551 5548 5543 5541
5574 5574 5575 5574 5573 5572 5571 5570 5571 5571 5570 5569 5568 5568 5568 5567 5566 5566 5566 5565 5564 5563 5562 5561 5560 5559 5558 5558 5557 5556 5554 5552 5551 5550 5548 5546 5545 5544 5542 5540 5537 5535 5533
5565 5565 5566 5566 5566 5564 5563 5563 5563 5563 5562 5562 5561 5561 5560 5559 5558 5558 5557 5556 5556 5554 5553 5552 5551 5550 5549 5548 5547 5545 5543 5542 5540 5539 5537 5536 5534 5533 5530 5528 5526 5524 5522
5554 5554 5555 5556 5556 5556 5555 5555 5555 5555 5555 5554 5553 5552 5550 5550 5550 5549 5548 5547 5547 5546 5544 5543 5542 5540 5539 5538 5536 5535 5533 5531 5529 5528 5526 5524 5523 5521 5518 5517 5514 5512 5510
5541 5542 5543 5545 5546 5547 5547 5548 5547 5547 5547 5545 5544 5542 5541 5540 5540 5539 5539 5538 5538 5536 5535 5533 5532 5531 5529 5528 5527 5525 5523 5521 5519 5517 5515 5513 5511 5509 5507 5504 5502 5500 5498
5529 5530 5531 5532 5534 5536 5537 5538 5538 5538 5538 5537 5535 5534 5533 5532 5531 5530 5529 5529 5528 5527 5525 5524 5522 5521 5520 5518 5517 5515 5513 5511 5509 5507 5505 5502 5500 5498 5495 5492 5490 5487 5484
5517 5519 5520 5520 5522 5524 5526 5528 5528 5528 5529 5528 5527 5525 5525 5523 5522 5521 5520 5519 5518 5517 5515 5514 5512 5511 5509 5508 5506 5504 5502 5500 5497 5495 5493 5491 5488 5486 5483 5480 5477 5474 5470
5505 5507 5508 5509 5511 5513 5515 5516 5517 5518 5518 5518 5517 5516 5515 5513 5512 5511 5510 5509 5507 5506 5505 5503 5502 5500 5499 5498 5496 5494 5491 5488 5486 5483 5481 5478 5475 5473 5471 5468 5466 5463 5459
5493 5495 5496 5497 5499 5501 5503 5504 5506 5507 5507 5507 5506 5506 5505 5504 5502 5501 5499 5498 5497 5495 5494 5492 5491 5489 5488 5487 5485 5483 5480 5477 5474 5471 5469 5466 5464 5461 5458 5456 5454 5451 5448
5479 5481 5483 5485 5486 5489 5491 5493 5495 5496 5496 5496 5495 5495 5494 5493 5491 5489 5488 5487 5485 5484 5482 5481 5479 5478 5477 5475 5473 5470 5467 5465 5462 5459 5456 5454 5452 5448 5444 5442 5440 5438 5436
5467 5469 5471 5473 5474 5476 5479 5480 5482 5483 5484 5484 5484 5483 5482 5481 5479 5478 5476 5475 5473 5471 5470 5469 5467 5465 5464 5462 5460 5457 5453 5451 5448 5446 5443 5441 5439 5436 5432 5429 5427 5426 5424
5453 5455 5458 5460 5461 5463 5466 5467 5468 5469 5471 5472 5472 5472 5471 5469 5468 5466 5464 5463 5461 5459 5458 5456 5454 5453 5451 5449 5447 5444 5441 5438 5436 5433 5431 5428 5426 5424 5420 5417 5414 5413 5411
5438 5441 5444 5446 5448 5450 5453 5453 5454 5455 5457 5458 5459 5459 5458 5457 5456 5454 5452 5450 5448 5446 5445 5443 5441 5440 5438 5436 5434 5432 5429 5426 5424 5421 5419 5416 5414 5412 5409 5406 5403 5402 5399
5424 5427 5429 5430 5433 5436 5439 5440 5439 5441 5443 5444 5445 5444 5444 5443 5442 5440 5438 5436 5435 5433 5430 5429 5428 5427 5425 5424 5422 5420 5418 5415 5412 5410 5408 5406 5403 5401 5398 5395 5392 5390 5387
5410 5412 5414 5415 5417 5420 5423 5424 5425 5427 5428 5429 5430 5429 5429 5428 5428 5427 5425 5423 5422 5420 5418 5416 5415 5414 5413 5412 5410 5408 5406 5403 5400 5398 5397 5394 5392 5389 5387 5384 5381 5377 5374
5395 5398 5400 5401 5402 5405 5407 5409 5411 5413 5414 5414 5414 5414 5414 5413 5413 5413 5412 5411 5409 5408 5406 5405 5403 5402 5401 5400 5399 5397 5394 5392 5389 5387 5385 5383 5380 5377 5374 5372 5368 5365 5362
5381 5384 5386 5387 5388 5390 5392 5394 5396 5398 5399 5400 5400 5399 5399 5399 5399 5398 5398 5398 5398 5397 5396 5395 5393 5392 5391 5390 5389 5387 5384 5382 5378 5376 5373 5369 5366 5363 5361 5358 5356 5353 5351
5369 5370 5372 5373 5374 5376 5378 5379 5381 5383 5384 5385 5385 5385 5385 5385 5385 5385 5386 5386 5386 5386 5386 5385 5384 5383 5382 5381 5379 5377 5375 5372 5369 5365 5361 5358 5354 5352 5350 5348 5345 5343 5341